{"data":{"norad_id":52297,"intl_designator":"2022-041AN","name":"STARLINK-3758","alt_names":[],"object_type":"PAYLOAD","status":"ACTIVE","operator":null,"country":"US","launch_date":"2022-04-21","launch_site_code":"AFETR","launch_vehicle":null,"mission":null,"orbit_class":"UNKNOWN","rcs_meters":null,"size_class":null,"mass_kg":null,"dimensions":null,"purposes":["comms"],"wikipedia_slug":null,"has_3d_model":false,"image_url":null,"decayed_at":null,"tle_current":{"epoch":"2026-09-19T16:58:41.671200Z","epoch_age_seconds":127989,"freshness":"FRESH","line1":"1 52297U 22041AN  26262.70742675 -.00003992  00000+0 -11004-3 0  9993","line2":"2 52297  53.1594 295.6007 0001568 135.5181 224.5948 15.33564275243966","mean_motion":15.33564275,"eccentricity":0.0001568,"inclination_deg":53.1594,"raan_deg":295.6007,"arg_perigee_deg":135.5181,"mean_anomaly_deg":224.5948,"bstar":-0.00011004,"rev_number":24396,"period_min":93.898900976941,"perigee_km":464.11528558637,"apogee_km":466.26135240641,"semimajor_km":6843.3253189964,"source":"CELESTRAK","updated_at":"2026-09-20T09:00:40.017673Z"}}}